Simultaneous Nadir Overpasses (SNOs) Predictions

Prediction of SNOs between AURA and NPP Satellite Orbit:

Table of predicted SNOs for the next 14.0 days since TLE Epoch: 12/25/2015
Index Date (AURA) Time (AURA) Lat,Lon (AURA) SZA (AURA ) Date (NPP) Time (NPP) Lat,Lon (NPP) SZA (NPP ) Distance(km) Time Diff (sec)
1 12/27/2015 02:02:38 79.31, 44.87 115.63 12/27/2015 02:02:25 79.31, 44.97 115.62 2.34 13
2 12/27/2015 02:52:00 -79.50,-146.17 64.64 12/27/2015 02:53:05 -79.49,-146.29 64.67 2.44 65
3 12/29/2015 17:29:48 -78.96, -9.04 63.98 12/29/2015 17:28:43 -78.95, -9.16 63.90 2.80 65
4 12/29/2015 18:19:03 79.39, 161.29 115.46 12/29/2015 18:19:15 79.39, 161.32 115.44 0.84 12
5 01/01/2016 09:46:12 -79.10, 107.72 64.29 01/01/2016 09:45:32 -79.10, 107.63 64.24 2.14 40
6 01/01/2016 10:35:27 79.52, -81.90 115.14 01/01/2016 10:36:04 79.52, -81.80 115.10 1.96 37
7 01/04/2016 02:02:34 -79.30,-135.12 64.74 01/04/2016 02:02:19 -79.31,-135.06 64.74 1.16 15
8 01/04/2016 02:51:53 79.56, 34.27 114.91 01/04/2016 02:52:56 79.56, 34.24 114.87 0.73 63
9 01/06/2016 17:29:39 79.08, 171.71 115.34 01/06/2016 17:28:33 79.08, 171.73 115.39 0.38 66




NCC Satellite Simultaneous Nadir Overpasses (SNOs) Prediction Service
